Content
SEND FEEDBACK

Daily
Averages
Monthly
Summary
United States of America

HONDO, TEXAS


Home > North America > United States > Texas
Elevation: 928 feet     Latitude: 29 21N     Longitude: 099 10W

WEATHER
 
SELECT A DAY
Number of Records: 201,265;   Date Range: 3/15/96 - 12/19/14
 
SHARE

PRINT THIS DATA

[ ← Previous Day ]
WEATHER ALMANAC - FEBRUARY 13, 2013
[ Next Day → ]
[ °C ]   °F
Weather ElementAverageHighLow
Temperature52.2 °F68 °F (4:51 pm)37 °F (6:51 am)
Dewpoint27.6 °F30.9 °F (1:51 am)21 °F (1:51 pm)
Humidity42.6 %68 % (7:51 am)19 % (1:51 pm)
Barometer30.08 in30.17 in (8:51 am)30.00 in (3:51 pm)
Wind Speed7.8 mph17.3 mph (4:51 am)
Wind Gust19.6 mph (1:51 am)
Weather ElementAverage
Visibility10 mi
Wind DirectionESE (114.8 °)

Weather ElementTotal
Precipitation---
Heating Degree Days12.5 (Base 65)
Growing Degree Days2.5 (Base 50)
Averaged from 23 records on February 13, 2013
WEATHER CONDITIONS BREAKOUT
WIND DIRECTION BREAKOUT
WEATHER BY HOUR - FEBRUARY 13, 2013
[ °C ]   °F
Local TimeTemperatureDewpointHumidityBarometerVisibilityWind DirectionWind SpeedGust SpeedPrecipitationEventsConditions
1:51 AM48.0 °F30.9 °F52 %30.09 in10.0 miNorth (360°)16.1 mph19.6 mphClear
2:51 AM46.9 °F30.0 °F52 %30.08 in10.0 miNorth (10°)15.0 mphClear
3:51 AM46.0 °F28.9 °F51 %30.06 in10.0 miNorth (10°)13.8 mphClear
4:51 AM46.0 °F28.9 °F51 %30.08 in10.0 miNorth (10°)17.3 mphClear
5:51 AM42.1 °F28.9 °F60 %30.11 in10.0 miNorth (10°)5.8 mphClear
6:51 AM37.0 °F27.0 °F67 %30.13 in10.0 miCalmClear
7:51 AM37.9 °F28.0 °F68 %30.14 in10.0 miNNW (340°)6.9 mphClear
8:51 AM46.9 °F30.9 °F54 %30.17 in10.0 miCalmClear
9:51 AM52.0 °F30.9 °F45 %30.16 in10.0 miNorth (350°)6.9 mphClear
10:51 AM57.0 °F30.0 °F36 %30.16 in10.0 miNorth (350°)10.4 mphClear
11:51 AM60.1 °F30.0 °F32 %30.14 in10.0 miNW (310°)4.6 mphClear
12:51 PM64.9 °F26.1 °F23 %30.10 in10.0 miVariable6.9 mphClear
1:51 PM64.9 °F21.0 °F19 %30.06 in10.0 miVariable3.5 mphClear
2:51 PM66.9 °F24.1 °F20 %30.03 in10.0 miNNE (30°)9.2 mphClear
3:51 PM66.9 °F24.1 °F20 %30.00 in10.0 miVariable5.8 mphClear
4:51 PM68.0 °F24.1 °F19 %30.00 in10.0 miSouth (180°)4.6 mphClear
5:51 PM64.0 °F25.0 °F23 %30.01 in10.0 miSouth (190°)6.9 mphClear
6:51 PM57.0 °F27.0 °F32 %30.03 in10.0 miEast (80°)6.9 mphClear
7:51 PM55.0 °F27.0 °F34 %30.05 in10.0 miSE (140°)9.2 mphClear
8:51 PM51.1 °F28.9 °F43 %30.06 in10.0 miESE (110°)4.6 mphClear
9:51 PM43.0 °F28.9 °F58 %30.08 in10.0 miENE (70°)10.4 mphClear
10:51 PM39.9 °F25.0 °F55 %30.09 in10.0 miNNE (20°)5.8 mphClear
11:51 PM39.9 °F28.9 °F65 %30.10 in10.0 miENE (70°)8.1 mphClear
Hourly data recorded from KHDO, located miles away from Hondo, Texas







STORIES FROM OUR PARTNERS